Paganella, Italy

2:44 PM CET on February 08, 2016 (GMT +0100)
Paganella

Weather History for LIVP - March, 2013

Change the Weather History Date:

Sunday, March 10, 2013

  Actual Average Record
Temperature  
Mean Temperature 28 °F -  
Max Temperature 31 °F 32 °F 42 °F (2003)
Min Temperature 24 °F 23 °F 6 °F (1998)
Degree Days  
Heating Degree Days 38    
Moisture  
Dew Point 25 °F    
Average Humidity 89    
Maximum Humidity 100    
Minimum Humidity 70    
Precipitation  
Precipitation 0.00 in 0.05 in - ()
Sea Level Pressure  
Sea Level Pressure 29.46 in    
Wind  
Wind Speed 9 mph ()    
Max Wind Speed 17 mph    
Max Gust Speed 28 mph    
Visibility 1.3 miles    
Events Fog , Snow    
Averages and records for this station are not official NWS values.
T = Trace of Precipitation, MM = Missing Value Source: Averaged Metar Reports

Daily Weather History Graph

Daily Weather History Graph

Search for Another Location

Airport or City:

Trip Planner

Search our weather history database for the weather conditions in past years. The results will help you decide how hot, cold, wet, or windy it might be!

Date:

Astronomy

Mar. 10, 2013 Rise Set
Actual Time 6:38 AM CET 6:14 PM CET
Civil Twilight 6:08 AM CET 6:44 PM CET
Nautical Twilight 5:33 AM CET 7:19 PM CET
Astronomical Twilight 4:58 AM CET 7:54 PM CET
Moon 5:31 AM CET (3/10) 5:02 PM CET (3/10)
Length of Visible Light 12h 36m
Length of Day
11h 36m
Waning Crescent, 2% of the Moon is Illuminated
Mar 10
Waning Crescent
Mar 11
New
Mar 19
First Quarter
Mar 27
Full
Apr 3
Last Quarter

Hourly Weather History & Observations

Time (CET) Temp. Windchill Dew Point Humidity Pressure Visibility Wind Dir Wind Speed Gust Speed Precip Events Conditions
12:55 AM 28.4 °F 20.4 °F 26.6 °F 93% 29.50 in - NNE 8.1 mph - N/A Fog Light Freezing Fog
1:00 AM 29 °F - 27 °F 91%  in 0 mi NNE 8.1 mph - - Snow Snow
1:55 AM 28.4 °F 16.6 °F 26.6 °F 93% 29.50 in - North 16.1 mph 27.6 mph N/A Fog Light Freezing Fog
2:55 AM 26.6 °F 13.8 °F 26.6 °F 100% 29.47 in - North 17.3 mph - N/A Fog Light Freezing Fog
3:55 AM 26.6 °F 15.2 °F 26.6 °F 100% 29.47 in - North 13.8 mph - N/A Fog Light Freezing Fog
4:00 AM 27 °F - 26 °F 93%  in 0 mi North 13.8 mph - - Snow Light Snow
4:55 AM 26.6 °F 15.2 °F 24.8 °F 93% 29.47 in 0.0 mi NNE 13.8 mph - N/A Fog Light Freezing Fog
5:55 AM 26.6 °F 15.7 °F 24.8 °F 93% 29.47 in 0.2 mi North 12.7 mph - N/A Fog Light Freezing Fog
6:55 AM 24.8 °F 11.9 °F 23.0 °F 93% 29.44 in 6.2 mi North 16.1 mph - N/A   Partly Cloudy
7:00 AM 26 °F - 24 °F 86%  in 25 mi North 16.1 mph - - Fog Light Fog
7:55 AM 24.8 °F 12.9 °F 23.0 °F 93% 29.44 in - NNE 13.8 mph - N/A   Clear
8:55 AM 26.6 °F 21.2 °F 23.0 °F 86% 29.47 in - North 4.6 mph - N/A   Clear
9:55 AM 28.4 °F 22.2 °F 21.2 °F 74% 29.47 in 6.2 mi NE 5.8 mph - N/A Fog Light Freezing Fog
10:00 AM 28 °F - 22 °F 70%  in 1 mi NE 5.8 mph - - Fog Fog
10:55 AM 28.4 °F - 24.8 °F 86% 29.47 in 6.2 mi Variable 2.3 mph - N/A   Partly Cloudy
11:55 AM 30.2 °F 22.6 °F 26.6 °F 86% 29.47 in 0.0 mi South 8.1 mph - N/A Fog Light Freezing Fog
12:55 PM 30.2 °F 20.2 °F 28.4 °F 93% 29.47 in 0.2 mi SSW 12.7 mph - N/A Fog Light Freezing Fog
1:00 PM 31 °F - 28 °F 82%  in 0 mi SSW 12.7 mph - - Fog Heavy Fog
1:55 PM 30.2 °F 20.2 °F 26.6 °F 86% 29.44 in 0.2 mi South 12.7 mph - N/A Fog Light Freezing Fog
2:55 PM 30.2 °F 20.2 °F 28.4 °F 93% 29.44 in 0.1 mi South 12.7 mph - N/A Fog Light Freezing Fog
3:55 PM 28.4 °F 18.5 °F 26.6 °F 93% 29.44 in - WSW 11.5 mph - N/A Fog Light Freezing Fog
4:00 PM 29 °F - 26 °F 84%  in 0 mi WSW 11.5 mph - - Snow Light Snow
4:55 PM 28.4 °F 19.7 °F 24.8 °F 86% 29.44 in 0.6 mi SSW 9.2 mph - N/A Fog , Snow Light Snow
5:55 PM 28.4 °F 19.7 °F 24.8 °F 86% 29.44 in 6.2 mi SSW 9.2 mph - N/A   Scattered Clouds
6:55 PM 28.4 °F 21.2 °F 24.8 °F 86% 29.44 in 0.0 mi SW 6.9 mph - N/A Fog Light Freezing Fog
7:55 PM 28.4 °F 21.2 °F 26.6 °F 93% 29.44 in 0.0 mi SSW 6.9 mph - N/A Fog Light Freezing Fog
8:55 PM 28.4 °F 22.2 °F 24.8 °F 86% 29.44 in 0.0 mi SSW 5.8 mph - N/A Fog Light Freezing Fog
9:55 PM 26.6 °F 20.0 °F 24.8 °F 93% 29.44 in 0.0 mi SSW 5.8 mph - N/A Fog Light Freezing Fog
10:00 PM 27 °F - 25 °F 89%  in 0 mi SSW 5.8 mph - - Fog Heavy Fog
10:55 PM 26.6 °F 20.0 °F 24.8 °F 93% 29.44 in 0.6 mi South 5.8 mph - N/A Fog Light Freezing Fog
11:55 PM 26.6 °F - 23.0 °F 86% 29.44 in - ENE 2.3 mph - N/A   Clear